"2010-04-04 00:00:00",1820437,20.33,322.4,3.994,1.162,10.04,101.9993,4.401,5.715,46.66,0,110,13.39,5.17,284.4
"2010-04-04 00:00:30",1820438,21.85,318.8,3.788,1.079,10.39,101.9988,4.4,5.711,46.45,0,110,13.39,5.17,280.8
"2010-04-04 00:01:00",1820439,21.54,317.9,4.064,1.191,10.57,101.9869,4.37,5.705,44.64,0,110,13.39,5.14,279.9
"2010-04-04 00:01:30",1820440,20.36,322.7,4.386,1.129,10.51,101.9759,4.342,5.685,45.03,0,110,13.39,5.11,284.7
"2010-04-04 00:02:00",1820441,20.1,324.5,3.73,1.129,10.23,101.9663,4.317,5.656,45.67,0,110,13.39,5.08,286.5
"2010-04-04 00:02:30",1820442,21.15,316.1,3.275,1.108,10.38,101.9654,4.315,5.652,46.09,0,110,13.39,5.08,278.1
"2010-04-04 00:03:00",1820443,20.5,316.7,4.138,0.934,10.39,101.9643,4.312,5.655,46.76,0,110,13.39,5.08,278.7
"2010-04-04 00:03:30",1820444,20.99,311,3.944,0.811,10.9,101.9522,4.281,5.632,44.16,0,110,13.39,5.05,273.0
"2010-04-04 00:04:00",1820445,20.54,309.9,2.139,0.728,10.96,101.9366,4.241,5.591,41.99,0,110,13.38,5.01,271.9
"2010-04-04 00:04:30",1820446,19.83,310.2,3.573,0.782,10.68,101.9369,4.242,5.602,41.78,0,110,13.38,5.01,272.2
"2010-04-04 00:05:00",1820447,19.15,309.9,3.646,0.886,10.28,101.9459,4.265,5.589,43.65,0,110,13.38,5.03,271.9
"2010-04-04 00:05:30",1820448,18.08,307.9,3.266,0.876,10.24,101.9493,4.274,5.597,44.48,0,110,13.38,5.04,269.9
"2010-04-04 00:06:00",1820449,17.7,307.6,3.278,0.737,10.46,101.953,4.283,5.585,43.79,0,110,13.38,5.05,269.6
"2010-04-04 00:06:30",1820450,17.65,307.7,3.621,0.845,10.06,101.9564,4.292,5.587,43.51,0,110,13.38,5.06,269.7
"2010-04-04 00:07:00",1820451,17.49,307.4,3.232,0.823,9.76,101.9556,4.29,5.593,44.46,0,110,13.39,5.06,269.4
"2010-04-04 00:07:30",1820452,16.23,306.1,4.341,1.179,9.12,101.951,4.278,5.592,47.78,0,110,13.38,5.05,268.1
"2010-04-04 00:08:00",1820453,15.66,307.5,4.053,0.887,9.21,101.9383,4.246,5.579,48.74,0,110,13.39,5.01,269.5
"2010-04-04 00:08:30",1820454,16.17,306.2,3.407,0.892,9.53,101.9315,4.228,5.575,47.61,0,110,13.39,5.00,268.2
"2010-04-04 00:09:00",1820455,15.15,309.8,4.21,1.03,8.94,101.9327,4.231,5.563,48.36,0,110,13.39,5.00,271.8
"2010-04-04 00:09:30",1820456,16.41,307.8,3.731,0.896,9.19,101.9321,4.23,5.56,48.92,0,110,13.39,5.00,269.8
"2010-04-04 00:10:00",1820457,16.91,308.7,3.377,0.726,9.28,101.9113,4.177,5.525,49.1,0,110,13.39,4.94,270.7
"2010-04-04 00:10:30",1820458,16.25,306.5,3.522,0.802,9.39,101.9017,4.152,5.526,49.08,0,110,13.39,4.92,268.5
"2010-04-04 00:11:00",1820459,16.39,303.7,3.592,0.793,9.45,101.9034,4.157,5.481,49.02,0,110,13.39,4.92,265.7
"2010-04-04 00:11:30",1820460,16.23,302.6,3.007,0.873,9.29,101.8869,4.114,5.473,49.8,0,110,13.4,4.88,264.6
"2010-04-04 00:12:00",1820461,16.11,305.6,2.961,0.663,9.4,101.8784,4.093,5.435,50.38,0,110,13.4,4.86,267.6
"2010-04-04 00:12:30",1820462,15.74,304.8,3.421,0.751,9.16,101.8791,4.095,5.414,50.82,0,110,13.4,4.86,266.8
"2010-04-04 00:13:00",1820463,15.68,306.2,3.554,0.822,9.2,101.8551,4.033,5.389,50.8,0,110,13.4,4.80,268.2
"2010-04-04 00:13:30",1820464,14.47,306.1,2.689,0.892,8.91,101.8555,4.034,5.339,50.78,0,110,13.4,4.80,268.1
"2010-04-04 00:14:00",1820465,14.35,304,3.629,0.908,9.04,101.8463,4.011,5.327,51.28,0,110,13.4,4.78,266.0
"2010-04-04 00:14:30",1820466,14.75,303.3,3.192,1.122,8.91,101.827,3.962,5.302,50.81,0,110,13.4,4.73,265.3
"2010-04-04 00:15:00",1820467,14.64,302.2,3.11,0.978,8.8,101.8294,3.967,5.29,50.1,0,110,13.4,4.73,264.2
"2010-04-04 00:15:30",1820468,13.25,299.6,3.554,0.816,8.58,101.8209,3.946,5.243,51.26,0,110,13.4,4.71,261.6
"2010-04-04 00:16:00",1820469,13.35,302.1,4.44,0.643,8.68,101.8011,3.895,5.227,52.06,0,110,13.4,4.66,264.1
"2010-04-04 00:16:30",1820470,13.88,304,3.852,0.857,8.54,101.7966,3.884,5.199,52.07,0,110,13.4,4.65,266.0
"2010-04-04 00:17:00",1820471,13.59,303.8,3.971,0.903,8.61,101.7912,3.87,5.188,51.85,0,110,13.4,4.64,265.8
"2010-04-04 00:17:30",1820472,14.31,306.1,3.775,0.924,8.62,101.7672,3.809,5.139,51.55,0,110,13.4,4.57,268.1
"2010-04-04 00:18:00",1820473,14.29,309.5,3.012,0.748,8.69,101.7627,3.797,5.13,51.41,0,110,13.4,4.56,271.5
"2010-04-04 00:18:30",1820474,13.75,309.7,3.989,0.862,8.75,101.7627,3.797,5.102,50.5,0,109.9,13.4,4.56,271.7
"2010-04-04 00:19:00",1820475,13.72,314.7,3.626,0.852,8.85,101.7627,3.797,5.084,50.3,0,109.9,13.4,4.56,276.7
"2010-04-04 00:19:30",1820476,14,316.7,3.627,0.872,8.59,101.7472,3.758,5.064,50.82,0,109.9,13.4,4.52,278.7
"2010-04-04 00:20:00",1820477,13.54,313.1,4.11,1.149,8.84,101.7294,3.712,5.067,52.04,0,109.9,13.4,4.48,275.1
"2010-04-04 00:20:30",1820478,14.11,313.1,3.282,0.898,8.62,101.7288,3.711,5.048,51.3,0,109.9,13.4,4.48,275.1
"2010-04-04 00:21:00",1820479,13.63,312.7,3.874,0.895,8.76,101.7288,3.711,5.052,51.81,0,109.9,13.4,4.48,274.7
"2010-04-04 00:21:30",1820480,13.53,317,3.687,0.82,8.86,101.7285,3.71,5.03,51.89,0,109.9,13.4,4.48,279.0
"2010-04-04 00:22:00",1820481,13.61,318.1,4.005,0.711,9.07,101.7206,3.69,5.012,51.34,0,109.9,13.4,4.45,280.1
"2010-04-04 00:22:30",1820482,12.68,317.3,2.832,0.87,8.79,101.7006,3.639,4.995,51,0,109.9,13.4,4.40,279.3
"2010-04-04 00:23:00",1820483,12.63,320.4,3.084,0.917,8.73,101.6952,3.625,4.985,51.52,0,109.9,13.4,4.39,282.4
"2010-04-04 00:23:30",1820484,12.42,320,3.366,0.906,8.72,101.6949,3.624,4.974,51.72,0,109.9,13.4,4.39,282.0
"2010-04-04 00:24:00",1820485,11.99,321.1,2.925,0.8,8.86,101.6949,3.624,4.974,51.72,0,109.9,13.4,4.39,283.1
"2010-04-04 00:24:30",1820486,11.21,319,4.135,0.896,8.66,101.6949,3.624,4.969,51.22,0,109.9,13.4,4.39,281.0
"2010-04-04 00:25:00",1820487,11.18,319.7,4.414,0.93,8.45,101.6958,3.626,4.971,51.33,0,109.9,13.4,4.39,281.7
"2010-04-04 00:25:30",1820488,10.8,320.5,4.038,0.943,8.43,101.6961,3.627,4.959,51.79,0,109.9,13.41,4.39,282.5
"2010-04-04 00:26:00",1820489,11.42,318.5,2.322,0.789,8.48,101.6967,3.629,4.95,51.34,0,109.9,13.41,4.39,280.5
"2010-04-04 00:26:30",1820490,11.78,316.2,4.512,0.727,8.53,101.6916,3.616,4.956,50.81,0,109.9,13.41,4.38,278.2
"2010-04-04 00:27:00",1820491,11.52,319,3.926,0.812,8.33,101.6913,3.615,4.97,50.72,0,109.9,13.41,4.38,281.0
"2010-04-04 00:27:30",1820492,11.49,319.5,3.53,0.846,8.27,101.6917,3.616,4.939,51.06,0,109.9,13.41,4.38,281.5
"2010-04-04 00:28:00",1820493,10.92,318.4,2.737,0.782,8.44,101.6863,3.602,4.941,50.97,0,109.9,13.41,4.37,280.4
"2010-04-04 00:28:30",1820494,11.58,315.5,3.671,1.064,8.34,101.6767,3.578,4.94,50.91,0,109.9,13.42,4.34,277.5
"2010-04-04 00:29:00",1820495,11.24,315.4,4.015,0.857,8.4,101.6748,3.573,4.958,50.47,0,109.9,13.42,4.34,277.4
"2010-04-04 00:29:30",1820496,12.01,316.7,3.858,0.92,8.27,101.6757,3.575,4.927,50.43,0,109.9,13.42,4.34,278.7
"2010-04-04 00:30:00",1820497,11.8,316.6,3.05,0.675,8.38,101.6805,3.588,4.929,50.48,0,109.9,13.42,4.35,278.6
"2010-04-04 00:30:30",1820498,12.37,316.1,3.498,0.875,8.49,101.6849,3.599,4.929,50.41,0,109.9,13.42,4.36,278.1
"2010-04-04 00:31:00",1820499,11.38,315.6,3.732,0.858,8.52,101.6869,3.604,4.928,50.18,0,109.9,13.42,4.37,277.6
"2010-04-04 00:31:30",1820500,11.23,317.1,3.85,0.943,8.47,101.6871,3.604,4.909,50.36,0,109.9,13.42,4.37,279.1
"2010-04-04 00:32:00",1820501,10.6,314.9,4.217,0.819,8.44,101.69,3.612,4.937,50.52,0,109.9,13.42,4.38,276.9
"2010-04-04 00:32:30",1820502,10.38,313.8,4.051,0.767,8.28,101.6935,3.621,4.916,50.79,0,109.9,13.42,4.39,275.8
"2010-04-04 00:33:00",1820503,11.01,309.9,5.5,1.002,8.31,101.6949,3.624,4.894,50.94,0,109.9,13.42,4.39,271.9
"2010-04-04 00:33:30",1820504,10.7,315.9,3.886,0.866,7.933,101.6927,3.619,4.897,50.52,0,109.9,13.42,4.38,277.9
"2010-04-04 00:34:00",1820505,8.86,310.6,8.38,1.22,6.741,101.6856,3.6,4.791,51.32,0,109.9,13.42,4.37,272.6
"2010-04-04 00:34:30",1820506,7.481,305.2,5.269,1.055,5.466,101.6819,3.591,4.745,51.97,0,109.9,13.42,4.36,267.2
"2010-04-04 00:35:00",1820507,7.268,302.2,6.083,1.017,4.504,101.6675,3.554,4.628,51.42,0,109.9,13.42,4.32,264.2
"2010-04-04 00:35:30",1820508,8.33,305.4,4.986,1.281,6.682,101.6621,3.541,4.805,52,0,109.9,13.43,4.30,267.4
"2010-04-04 00:36:00",1820509,9.85,310.6,2.037,0.948,8.84,101.6616,3.539,4.9,52.77,0,109.9,13.43,4.30,272.6
"2010-04-04 00:36:30",1820510,9.76,313.7,5.161,0.628,9.09,101.6616,3.539,4.882,52.36,0,109.9,13.42,4.30,275.7
"2010-04-04 00:37:00",1820511,11.51,311.9,5.726,1.253,9.32,101.6616,3.539,4.886,51.49,0,109.9,13.42,4.30,273.9
"2010-04-04 00:37:30",1820512,13.51,315.1,3.636,1.125,9.5,101.6616,3.539,4.863,46.45,0,109.9,13.42,4.30,277.1
"2010-04-04 00:38:00",1820513,11.83,316.9,5.29,0.714,9.21,101.6616,3.539,4.847,45.31,0,109.9,13.42,4.30,278.9
"2010-04-04 00:38:30",1820514,13.11,316.3,4.02,1.364,8.94,101.6616,3.539,4.843,45.73,0,109.9,13.42,4.30,278.3
"2010-04-04 00:39:00",1820515,11.99,320.2,5.283,1.117,8.79,101.6616,3.539,4.848,46.69,0,109.9,13.42,4.30,282.2
"2010-04-04 00:39:30",1820516,11.11,314.9,4.488,0.985,8.89,101.6734,3.569,4.868,46.84,0,109.9,13.42,4.33,276.9
"2010-04-04 00:40:00",1820517,11.6,311,9.31,1.442,9.03,101.6896,3.611,4.883,47.58,0,109.9,13.42,4.38,273.0
"2010-04-04 00:40:30",1820518,8.81,310.2,7.102,1.37,8.49,101.6955,3.626,4.876,47.76,0,109.9,13.42,4.39,272.2
"2010-04-04 00:41:00",1820519,8.57,316.8,8.33,1.096,8.15,101.6955,3.626,4.92,48.1,0,109.9,13.42,4.39,278.8
"2010-04-04 00:41:30",1820520,9.02,323.6,9.06,0.968,7.023,101.6955,3.626,4.748,48.22,0,109.9,13.43,4.39,285.6
"2010-04-04 00:42:00",1820521,8.25,316.4,4.952,1.15,4.07,101.6972,3.63,4.62,48,0,109.9,13.46,4.39,278.4
"2010-04-04 00:42:30",1820522,8.41,303.1,12.13,1.307,7.011,101.7136,3.672,4.816,47.91,0,109.9,13.43,4.44,265.1
"2010-04-04 00:43:00",1820523,10.03,311.9,7.462,0.792,9.53,101.724,3.699,4.947,47.83,0,109.9,13.43,4.46,273.9
"2010-04-04 00:43:30",1820524,8.68,310.3,11.39,1.417,9.8,101.7285,3.71,4.964,48.2,0,109.9,13.44,4.48,272.3
"2010-04-04 00:44:00",1820525,7.648,320.4,6.32,0.665,9.32,101.7294,3.712,4.951,48.87,0,109.9,13.44,4.48,282.4
"2010-04-04 00:44:30",1820526,8.43,320.3,7.077,1.033,8.79,101.7294,3.712,4.983,49.5,0,109.9,13.44,4.48,282.3
"2010-04-04 00:45:00",1820527,8.36,316.4,7.746,1.331,7.433,101.7294,3.712,4.777,48.74,0,109.9,13.44,4.48,278.4
"2010-04-04 00:45:30",1820528,6.772,314.6,7.355,1.44,5.049,101.7294,3.712,4.813,48.55,0,109.9,13.44,4.48,276.6
"2010-04-04 00:46:00",1820529,7.996,319.6,8.38,1.178,7.944,101.7294,3.712,4.878,49.09,0,109.9,13.44,4.48,281.6
"2010-04-04 00:46:30",1820530,6.958,332.8,5.801,0.857,9.19,101.7297,3.713,4.998,49.73,0,109.9,13.44,4.48,294.8
"2010-04-04 00:47:00",1820531,9.03,326.4,5.408,1.466,9.34,101.7294,3.712,5.024,50.06,0,109.9,13.45,4.48,288.4
"2010-04-04 00:47:30",1820532,7.374,338.9,10.83,1.5,7.942,101.7303,3.715,5,49.19,0,109.9,13.44,4.48,300.9
"2010-04-04 00:48:00",1820533,6.81,326.6,9.4,1.155,6.967,101.7306,3.715,4.839,49.68,0,109.9,13.44,4.48,288.6
"2010-04-04 00:48:30",1820534,6.673,315.2,10.16,1.157,5.19,101.732,3.719,4.854,49.42,0,109.9,13.45,4.48,277.2
"2010-04-04 00:49:00",1820535,7.028,320.2,10.79,1.122,7.098,101.7346,3.726,4.833,49.27,0,109.9,13.45,4.49,282.2
"2010-04-04 00:49:30",1820536,6.685,336.3,6.653,1.071,8.16,101.7343,3.725,4.952,49.63,0,109.9,13.45,4.49,298.3
"2010-04-04 00:50:00",1820537,7.561,329.8,5.386,1.159,9.08,101.7301,3.714,5.041,50.1,0,109.9,13.45,4.48,291.8
"2010-04-04 00:50:30",1820538,7.46,328.5,7.975,1.148,6.782,101.7265,3.705,4.878,49.86,0,110,13.45,4.47,290.5
"2010-04-04 00:51:00",1820539,8.91,319,10.25,1.419,7.744,101.7141,3.673,4.959,49.19,0,109.9,13.45,4.44,281.0
"2010-04-04 00:51:30",1820540,7.258,315.4,15.35,0.908,5.867,101.715,3.676,4.861,48.95,0,109.9,13.45,4.44,277.4
"2010-04-04 00:52:00",1820541,5.844,331.3,11.06,1.094,7.106,101.7179,3.683,4.903,49.65,0,109.9,13.45,4.45,293.3
"2010-04-04 00:52:30",1820542,5.752,325.9,12.43,1.221,7.493,101.7199,3.688,4.96,49.97,0,109.9,13.45,4.45,287.9
"2010-04-04 00:53:00",1820543,5.586,344.4,11,1.431,7.671,101.7228,3.695,4.972,50.29,0,109.9,13.45,4.46,306.4
"2010-04-04 00:53:30",1820544,6.62,320.3,8.87,1.446,6.824,101.7268,3.706,4.816,49.7,0,109.9,13.45,4.47,282.3
"2010-04-04 00:54:00",1820545,5.878,326.4,8.26,1.346,6.997,101.726,3.704,4.956,50.04,0,109.9,13.45,4.47,288.4
"2010-04-04 00:54:30",1820546,6.943,327.2,5.909,1.189,8.19,101.7175,3.682,4.894,50.16,0,109.9,13.45,4.45,289.2
"2010-04-04 00:55:00",1820547,5.557,322,9.47,1.486,7.879,101.7048,3.65,4.872,49.8,0,109.9,13.45,4.41,284.0
"2010-04-04 00:55:30",1820548,5.491,326.9,8.46,1.181,6.528,101.6961,3.627,4.842,49.41,0,109.9,13.45,4.39,288.9
"2010-04-04 00:56:00",1820549,5.038,326.2,6.799,0.775,4.453,101.6961,3.627,4.711,49.84,0,109.9,13.45,4.39,288.2
"2010-04-04 00:56:30",1820550,5.089,350.3,14.77,1.763,7.044,101.6958,3.626,4.92,50.49,0,109.8,13.45,4.39,312.3
"2010-04-04 00:57:00",1820551,4.079,0.664,11.33,1.107,6.357,101.6961,3.627,4.795,50.73,0,109.9,13.45,4.39,322.7
"2010-04-04 00:57:30",1820552,5.765,326.2,9.56,1.198,6.352,101.6873,3.605,4.897,50.25,0,109.9,13.45,4.37,288.2
"2010-04-04 00:58:00",1820553,6.127,338.7,9.08,1.051,7.427,101.6658,3.55,4.835,50,0,109.8,13.46,4.31,300.7
"2010-04-04 00:58:30",1820554,5.604,346.6,8.58,1.092,7.331,101.6621,3.541,4.774,50.25,0,109.8,13.46,4.30,308.6
"2010-04-04 00:59:00",1820555,6.455,343.9,9.79,0.893,7.328,101.6621,3.541,4.826,50.13,0,109.8,13.46,4.30,305.9
"2010-04-04 00:59:30",1820556,4.951,358.5,10.76,1.082,6.936,101.6621,3.541,4.787,49.82,0,109.8,13.46,4.30,320.5
"2010-04-04 01:00:00",1820557,5.843,333.1,11.47,1.22,6.389,101.6537,3.519,4.721,49.6,0,109.8,13.46,4.28,295.1
"2010-04-04 01:00:30",1820558,5.385,334.5,7.898,1.256,6.735,101.6313,3.462,4.634,49.18,0,109.8,13.46,4.23,296.5
"2010-04-04 01:01:00",1820559,6.23,341.9,11.86,1.61,6.725,101.6282,3.454,4.782,49.44,0,109.8,13.46,4.22,303.9
"2010-04-04 01:01:30",1820560,6.725,346.7,11.02,1.261,7.337,101.6282,3.454,4.657,49.25,0,109.8,13.46,4.22,308.7
"2010-04-04 01:02:00",1820561,6.324,347.2,10.94,1.194,7.057,101.6277,3.453,4.694,49.21,0,109.8,13.46,4.22,309.2
"2010-04-04 01:02:30",1820562,6.611,344.8,6.556,1.523,6.974,101.6195,3.432,4.684,49.06,0,109.8,13.46,4.20,306.8
"2010-04-04 01:03:00",1820563,7.007,331.1,16.51,1.424,7.599,101.609,3.405,4.797,49.03,0,109.8,13.46,4.17,293.1
"2010-04-04 01:03:30",1820564,6.722,340.2,6.832,0.939,7.412,101.5951,3.37,4.62,48.97,0,109.8,13.47,4.13,302.2
"2010-04-04 01:04:00",1820565,7.075,338.4,7.243,1.201,7.519,101.5943,3.367,4.68,49.06,0,109.8,13.47,4.13,300.4
"2010-04-04 01:04:30",1820566,6.814,325.7,12.91,0.99,6.357,101.5943,3.367,4.573,48.83,0,109.8,13.47,4.13,287.7
"2010-04-04 01:05:00",1820567,6.783,315.3,18.91,1.282,7.925,101.5943,3.367,4.66,48.6,0,109.8,13.47,4.13,277.3
"2010-04-04 01:05:30",1820568,7.456,304,11.6,1.266,8.2,101.5935,3.365,4.67,47.63,0,109.8,13.47,4.13,266.0
"2010-04-04 01:06:00",1820569,6.473,318.6,9.27,1.167,6.684,101.5878,3.351,4.627,47.34,0,109.8,13.47,4.11,280.6
"2010-04-04 01:06:30",1820570,6.651,343.2,10.96,1.45,7.58,101.585,3.344,4.634,47.38,0,109.8,13.47,4.11,305.2
"2010-04-04 01:07:00",1820571,8.5,316.6,12.4,1.073,7.999,101.5796,3.33,4.641,47.42,0,109.8,13.47,4.09,278.6
"2010-04-04 01:07:30",1820572,8.13,324.5,8.2,1.02,8.69,101.5717,3.31,4.612,46.99,0,109.8,13.47,4.07,286.5
"2010-04-04 01:08:00",1820573,8.38,324.4,6.871,1.806,7.548,101.5669,3.297,4.631,47.22,0,109.8,13.47,4.06,286.4
"2010-04-04 01:08:30",1820574,9.15,331.5,7.13,1.237,8.48,101.5624,3.286,4.615,47.36,0,109.8,13.47,4.05,293.5
"2010-04-04 01:09:00",1820575,7.754,343.6,6.581,1.159,8.08,101.5607,3.282,4.61,47.6,0,109.8,13.47,4.05,305.6
"2010-04-04 01:09:30",1820576,5.914,337.5,5.483,1.336,7.631,101.5609,3.282,4.597,47.65,0,109.8,13.47,4.05,299.5
"2010-04-04 01:10:00",1820577,5.164,318.9,10.12,1.495,6.099,101.5621,3.285,4.591,47.57,0,109.8,13.47,4.05,280.9
"2010-04-04 01:10:30",1820578,8.09,320.7,7.775,0.945,5.8,101.5644,3.291,4.372,47.43,0,109.8,13.46,4.05,282.7
"2010-04-04 01:11:00",1820579,10.33,333.3,7.813,1.404,7.603,101.5667,3.297,4.611,47.81,0,109.8,13.47,4.06,295.3
"2010-04-04 01:11:30",1820580,10.37,338.1,4.444,1.127,9.43,101.569,3.303,4.672,47.71,0,109.8,13.47,4.07,300.1
"2010-04-04 01:12:00",1820581,9.79,324.4,6.357,0.786,9.8,101.5676,3.299,4.657,47.48,0,109.8,13.47,4.06,286.4
"2010-04-04 01:12:30",1820582,8.59,333.1,9.81,1.207,8.97,101.5693,3.304,4.686,47.4,0,109.8,13.47,4.07,295.1
"2010-04-04 01:13:00",1820583,11.58,328.2,9.18,0.959,9.23,101.5713,3.309,4.653,46.97,0,109.8,13.46,4.07,290.2
"2010-04-04 01:13:30",1820584,11.46,319.6,11.27,1.25,9.34,101.575,3.318,4.664,44.87,0,109.8,13.47,4.08,281.6
"2010-04-04 01:14:00",1820585,11.32,335.8,9.43,1.56,8.91,101.5773,3.324,4.654,45.56,0,109.8,13.47,4.09,297.8
"2010-04-04 01:14:30",1820586,11.28,315.6,9.89,1.366,9.16,101.5991,3.38,4.674,45.26,0,109.8,13.47,4.14,277.6
"2010-04-04 01:15:00",1820587,9.52,319.2,14.3,1.194,9.02,101.6164,3.424,4.668,44.42,0,109.8,13.47,4.19,281.2
"2010-04-04 01:15:30",1820588,8.79,328.4,11.92,1.015,8.49,101.6173,3.426,4.694,45.55,0,109.8,13.47,4.19,290.4
"2010-04-04 01:16:00",1820589,7.903,317.3,16.13,1.007,8.71,101.6303,3.459,4.708,45.62,0,109.8,13.47,4.22,279.3
"2010-04-04 01:16:30",1820590,10.26,316.3,11.36,1.352,7.604,101.6507,3.511,4.61,45.04,0,109.8,13.47,4.28,278.3
"2010-04-04 01:17:00",1820591,10.64,303.9,4.46,1.055,5.461,101.6532,3.518,4.566,44.11,0,109.8,13.47,4.28,265.9
"2010-04-04 01:17:30",1820592,9.43,321.9,10.54,1.892,8.2,101.6547,3.522,4.684,43.85,0,109.8,13.47,4.29,283.9
"2010-04-04 01:18:00",1820593,9.92,324.7,10.26,1.336,8.79,101.6578,3.529,4.725,44.69,0,109.7,13.47,4.29,286.7
"2010-04-04 01:18:30",1820594,11.24,332.4,7.325,1.551,9.51,101.6821,3.592,4.782,45.6,0,109.8,13.47,4.36,294.4
"2010-04-04 01:19:00",1820595,10.09,334.5,17.6,1.186,9.56,101.6889,3.609,4.828,45.82,0,109.8,13.48,4.37,296.5
"2010-04-04 01:19:30",1820596,10.87,320.9,6.763,0.969,10.23,101.6889,3.609,4.817,44.11,0,109.8,13.48,4.37,282.9
"2010-04-04 01:20:00",1820597,11.67,321.8,6.068,1.124,9.62,101.6912,3.615,4.81,43.57,0,109.8,13.48,4.38,283.8
"2010-04-04 01:20:30",1820598,10.69,321.6,7.842,1.504,9.29,101.6957,3.626,4.843,44.69,0,109.8,13.47,4.39,283.6
"2010-04-04 01:21:00",1820599,12.02,319.5,5.377,2.441,9.43,101.7209,3.691,4.878,44.08,0,109.8,13.47,4.46,281.5
"2010-04-04 01:21:30",1820600,14.22,312.7,4.082,1.09,9.79,101.7297,3.713,4.889,43.13,0,109.8,13.47,4.48,274.7
"2010-04-04 01:22:00",1820601,11.71,315.2,7.787,0.892,9.47,101.7294,3.712,4.909,43.09,0,109.8,13.47,4.48,277.2
"2010-04-04 01:22:30",1820602,11.48,320.8,8.88,1.142,9.38,101.732,3.719,4.895,42.89,0,109.8,13.47,4.48,282.8
"2010-04-04 01:23:00",1820603,9.8,349.3,9.08,1.192,8.97,101.7543,3.776,4.955,43.66,0,109.8,13.47,4.54,311.3
"2010-04-04 01:23:30",1820604,9.56,321.2,13.04,1.261,9.07,101.7642,3.801,4.965,43.6,0,109.8,13.47,4.57,283.2
"2010-04-04 01:24:00",1820605,12.19,310.1,5.415,1.806,8.96,101.7645,3.802,4.98,43.33,0,109.8,13.47,4.57,272.1
"2010-04-04 01:24:30",1820606,9.1,330.4,11.35,1.731,8.57,101.7645,3.802,5.005,43.94,0,109.8,13.47,4.57,292.4
"2010-04-04 01:25:00",1820607,8.46,308.8,8.46,1.465,8.77,101.7668,3.808,5.049,43.86,0,109.8,13.48,4.57,270.8
"2010-04-04 01:25:30",1820608,9.44,324.9,9,1.1,8.31,101.7767,3.833,5.004,43.77,0,109.8,13.47,4.60,286.9
"2010-04-04 01:26:00",1820609,11.58,307.5,14.48,1.325,7.093,101.7837,3.851,4.896,43.41,0,109.8,13.47,4.62,269.5
"2010-04-04 01:26:30",1820610,12.62,300,8.07,1.343,7.531,101.7897,3.866,4.957,42.53,0,109.8,13.47,4.63,262.0
"2010-04-04 01:27:00",1820611,10.08,301.7,5.881,1.95,8.74,101.7973,3.886,5.061,43.02,0,109.8,13.47,4.65,263.7
"2010-04-04 01:27:30",1820612,8.25,303.4,10.07,1.683,8.94,101.7984,3.889,5.059,43.57,0,109.8,13.48,4.65,265.4
"2010-04-04 01:28:00",1820613,12.43,307.7,8.92,1.621,8.67,101.7984,3.889,4.999,42.84,0,109.8,13.47,4.65,269.7
"2010-04-04 01:28:30",1820614,10.12,318.4,11.97,2.159,8.63,101.7984,3.889,5.055,43.32,0,109.8,13.48,4.65,280.4
"2010-04-04 01:29:00",1820615,9.14,302.9,11.94,1.302,9.23,101.7984,3.889,5.076,43.67,0,109.8,13.48,4.65,264.9
"2010-04-04 01:29:30",1820616,9.23,304.6,7.127,0.966,9.28,101.7984,3.889,5.102,42.86,0,109.8,13.48,4.65,266.6
"2010-04-04 01:30:00",1820617,8.03,311,7.238,1.626,7.166,101.7981,3.888,4.978,43.49,0,109.8,13.48,4.65,273.0
"2010-04-04 01:30:30",1820618,7.144,306.9,8.91,1.256,5.455,101.797,3.885,4.827,43.22,0,109.8,13.48,4.65,268.9
"2010-04-04 01:31:00",1820619,8.88,308.9,6.718,1.259,7.753,101.7979,3.887,4.994,42.53,0,109.8,13.48,4.65,270.9
"2010-04-04 01:31:30",1820620,8.94,317.2,5.345,1.065,9.26,101.7984,3.889,5.016,41.75,0,109.8,13.48,4.65,279.2
"2010-04-04 01:32:00",1820621,9.58,321.5,3.415,0.969,10.05,101.7984,3.889,5.096,41.61,0,109.8,13.49,4.65,283.5
"2010-04-04 01:32:30",1820622,10.14,314.2,10.05,1.171,9.86,101.7984,3.889,5.129,41.68,0,109.8,13.49,4.65,276.2
"2010-04-04 01:33:00",1820623,9.63,305.4,9.66,1.448,8.63,101.7984,3.889,5.06,41.63,0,109.8,13.49,4.65,267.4
"2010-04-04 01:33:30",1820624,9.57,307.8,8.2,1.396,8.47,101.7984,3.889,4.998,41.87,0,109.8,13.49,4.65,269.8
"2010-04-04 01:34:00",1820625,7.775,295.3,7.467,1.735,5.762,101.7984,3.889,4.925,42.15,0,109.8,13.49,4.65,257.3
"2010-04-04 01:34:30",1820626,9.62,296.4,8.3,1.437,8.67,101.7984,3.889,5.097,42.52,0,109.8,13.49,4.65,258.4
"2010-04-04 01:35:00",1820627,10.01,299.5,11.78,1.255,9.64,101.8066,3.909,5.174,42.6,0,109.8,13.49,4.68,261.5
"2010-04-04 01:35:30",1820628,7.852,299,13.55,0.932,9.19,101.8233,3.952,5.147,42.9,0,109.8,13.49,4.72,261.0
"2010-04-04 01:36:00",1820629,7.322,299.4,8.86,1.606,6.872,101.8315,3.973,5.111,43.02,0,109.8,13.49,4.74,261.4
"2010-04-04 01:36:30",1820630,7.621,300.9,6.914,1.65,6.849,101.8321,3.974,5.022,42.88,0,109.8,13.49,4.74,262.9
"2010-04-04 01:37:00",1820631,5.76,315.7,13.85,0.964,7.183,101.8327,3.976,5.129,42.91,0,109.8,13.49,4.74,277.7
"2010-04-04 01:37:30",1820632,5.391,319.7,17.62,1.237,8.01,101.8321,3.974,5.052,42.82,0,109.8,13.49,4.74,281.7
"2010-04-04 01:38:00",1820633,4.033,341.7,11.5,1.576,7.2,101.8315,3.973,5.105,43.03,0,109.8,13.49,4.74,303.7
"2010-04-04 01:38:30",1820634,2.863,322,19.43,1.311,6.783,101.8267,3.961,5.113,43.14,0,109.8,13.49,4.73,284.0
"2010-04-04 01:39:00",1820635,1.35,271,29.87,1.251,5.854,101.8007,3.894,4.97,43.09,0,109.8,13.49,4.66,233.0
"2010-04-04 01:39:30",1820636,1.228,297.6,14.48,0.521,3.53,101.7987,3.889,4.923,43.09,0,109.8,13.53,4.65,259.6
"2010-04-04 01:40:00",1820637,3.899,328.2,8.5,1.477,5.747,101.7984,3.889,4.986,42.97,0,109.8,13.5,4.65,290.2
"2010-04-04 01:40:30",1820638,6.113,325.9,9.3,2.072,6.003,101.7984,3.889,5.031,42.51,0,109.8,13.5,4.65,287.9
"2010-04-04 01:41:00",1820639,7.371,312.8,16.34,0.782,9.33,101.7987,3.889,5.201,42.61,0,109.8,13.5,4.65,274.8
"2010-04-04 01:41:30",1820640,6.681,324,6.865,1.196,9.28,101.7956,3.881,5.199,42.93,0,109.8,13.49,4.65,286.0
"2010-04-04 01:42:00",1820641,4.67,299.2,10.49,1.073,7.133,101.7883,3.863,5.076,43.12,0,109.8,13.49,4.63,261.2
"2010-04-04 01:42:30",1820642,4.823,294.2,5.668,0.719,4.596,101.7713,3.819,4.958,42.88,0,109.8,13.53,4.58,256.2
"2010-04-04 01:43:00",1820643,7.335,299.2,6.468,1.705,6.724,101.7654,3.804,4.956,42.61,0,109.8,13.49,4.57,261.2
"2010-04-04 01:43:30",1820644,6.063,299.1,11.55,1.372,7.422,101.7677,3.81,5.03,42.7,0,109.8,13.49,4.58,261.1
"2010-04-04 01:44:00",1820645,7.85,302.9,6.525,1.184,9.69,101.7688,3.813,5.14,42.6,0,109.8,13.49,4.58,264.9
"2010-04-04 01:44:30",1820646,9.11,307.1,3.279,1.221,9.5,101.7708,3.818,5.141,42.37,0,109.8,13.49,4.58,269.1
"2010-04-04 01:45:00",1820647,10.09,298.1,7.131,0.964,9.72,101.7717,3.82,5.138,42.41,0,109.8,13.49,4.59,260.1
"2010-04-04 01:45:30",1820648,9.33,289.4,9.61,1.162,8.31,101.7754,3.83,4.996,41.52,0,109.8,13.49,4.60,251.4
"2010-04-04 01:46:00",1820649,8.16,308,8.15,1.558,7.789,101.7754,3.83,5.026,41.92,0,109.8,13.49,4.60,270.0
"2010-04-04 01:46:30",1820650,6.253,285.5,8.89,0.562,5.618,101.7737,3.825,4.955,41.6,0,109.8,13.5,4.59,247.5
"2010-04-04 01:47:00",1820651,6.966,300,11.19,0.851,9.15,101.7752,3.829,5.048,41.65,0,109.8,13.5,4.59,262.0
"2010-04-04 01:47:30",1820652,7.227,308,7.841,1.172,9.08,101.7772,3.834,5.125,41.86,0,109.8,13.5,4.60,270.0
"2010-04-04 01:48:00",1820653,8.63,301.2,11.25,1.845,8.39,101.7775,3.835,5.054,41.69,0,109.8,13.5,4.60,263.2
"2010-04-04 01:48:30",1820654,8.4,290.9,5.802,1.319,7.84,101.7789,3.839,5.093,40.9,0,109.8,13.5,4.60,252.9
"2010-04-04 01:49:00",1820655,8.45,307.5,8.74,1.508,8.27,101.7812,3.845,5.027,41.14,0,109.8,13.5,4.61,269.5